Hourly Data Report for April 25, 2021

MIRAMICHI RCS
NEW BRUNSWICK
Current Station Operator: ECCC - MSC

47°00'34.000" N
65°27'54.000" W
33.00 m
8100989
71744
ACQ

Download Data

Hourly Data (April 2021)
Hourly Data Report for April 25, 2021
TIME
LST
Temp Definition
°C
Dew Point Definition
°C
Rel Hum Definition
%
Precip. Amount Definition
mm

Wind Dir Definition
10's deg

Wind Spd Definition
km/h
Visibility Definition
km
Stn Press Definition
kPa
Hmdx Definition


Wind Chill Definition


Weather Definition


00:00 2.6 -1.1 76 LegendMM 25 3   100.50     LegendNANA
01:00 1.1 -1.0 85 LegendMM 27 7   100.51     LegendNANA
02:00 0.8 -1.0 88 LegendMM 27 8   100.52     LegendNANA
03:00 0.7 -1.2 87 LegendMM 29 1   100.52     LegendNANA
04:00 -0.1 -1.7 89 LegendMM 2 3   100.55   -1 LegendNANA
05:00 -0.8 -1.9 92 LegendMM 24 3   100.59   -2 LegendNANA
06:00 -0.6 -1.7 92 LegendMM 27 2   100.62   -1 LegendNANA
07:00 2.9 0.5 84 LegendMM 24 3   100.66     LegendNANA
08:00 7.5 0.9 63 LegendMM 13 1   100.68     LegendNANA
09:00 11.0 -0.1 46 LegendMM 6 14   100.67     LegendNANA
10:00 12.4 -0.8 40 LegendMM 8 20   100.67     LegendNANA
11:00 13.7 0.7 41 LegendMM 7 17   100.66     LegendNANA
12:00 14.5 2.0 43 LegendMM 5 18   100.61     LegendNANA
13:00 12.7 0.7 44 LegendMM 6 21   100.57     LegendNANA
14:00 12.3 1.5 47 LegendMM 5 19   100.50     LegendNANA
15:00 11.0 1.8 53 LegendMM 6 22   100.44     LegendNANA
16:00 7.7 1.4 64 LegendMM 6 20   100.41     LegendNANA
17:00 7.6 1.8 67 LegendMM 6 17   100.41     LegendNANA
18:00 6.4 1.7 72 LegendMM 6 12   100.45     LegendNANA
19:00 5.3 1.6 77 LegendMM 6 13   100.45     LegendNANA
20:00 4.9 2.0 81 LegendMM 4 17   100.40     LegendNANA
21:00 5.0 2.3 83 LegendMM 10 16   100.46     LegendNANA
22:00 4.6 2.7 87 LegendMM 4 12   100.35     LegendNANA
23:00 4.6 2.8 88 LegendMM 10 5   100.34     LegendNANA

Notes on Data Quality.

Legend

  • E = Estimated
  • M = Missing
  • NA = Not Available*
  • [empty] = Indicates an unobserved value
Date modified: